Flag for Turkey Weather past 2 weeks in Mersin, Turkey

Now
52 °F

Fog.


Feels Like: 51 °F
Forecast: 46 / 51 °F
Wind: 5 mph from North

Location: Adana / Sakirpasa

Current Time: Jan 30, 2015 at 4:46:35 PM

Latest Report: Jan 30, 2015 at 3:50 PM


Visibility: 2 mi

Pressure: 29.95 "Hg

Humidity: 72%

Dew point: 43 °F

Location of MersinLocation

Historic Weather in Mersin — Graph

°F

Mersin temperature yesterday

Maximum temperature yesterday: 63 °F (at 12:50 PM)
Minimum temperature yesterday: 45 °F (at 5:20 AM)
Average temperature yesterday: 52 °F

Past Weeks' High & Low Weather Summary

 TemperatureHumidityPressure
High70 °F (Jan 25, 12:50 PM)94% (Jan 30, 5:50 AM)30.33 "Hg (Jan 30, 5:50 AM)
Low34 °F (Jan 18, 5:20 AM)23% (Jan 23, 2:20 PM)29.83 "Hg (Jan 28, 4:50 AM)
Average51 °F65%30.10 "Hg
* Reported Jan 15 3:20 PM — Jan 30 3:50 PM, Mersin, Weather by CustomWeather, © 2014

Note: Actual official high and low records may vary slightly from our data, if they occured in-between our weather recording intervals... More about our weather records

Advertising

Mersin weather history for previous 24 hours

 ConditionsComfort  
Time TempWeatherWind HumidityBarometerVisibility
3:50 PM
Jan 30
52 °FFog.5 mph72%29.95 "Hg2 mi
3:20 PM50 °FFog.6 mph82%29.98 "Hg2 mi
2:50 PM50 °FSprinkles. Fog.6 mph82%29.95 "Hg2 mi
2:20 PM50 °FSprinkles. Fog.7 mph82%29.98 "Hg2 mi
1:50 PM50 °FSprinkles. Fog.8 mph82%29.95 "Hg2 mi
1:20 PM50 °FSprinkles. Fog.9 mph88%29.95 "Hg2 mi
12:50 PM50 °FFog.8 mph82%29.98 "Hg2 mi
12:20 PM50 °FSprinkles. Fog.9 mph88%29.98 "Hg2 mi
11:50 AM50 °FSprinkles. Fog.10 mph88%29.98 "Hg2 mi
11:20 AM50 °FSprinkles. Fog.12 mph88%29.98 "Hg3 mi
10:50 AM50 °FRain showers. Fog.3 mph88%29.98 "Hg2 mi
10:20 AM50 °FSprinkles. Fog.7 mph88%29.98 "Hg2 mi
9:50 AM50 °FSprinkles. Fog.7 mph88%29.98 "Hg2 mi
9:20 AM52 °FSprinkles. Fog.7 mph82%29.95 "Hg2 mi
8:50 AM52 °FSprinkles. Fog.9 mph82%29.92 "Hg2 mi
8:20 AM50 °FSprinkles. Fog.9 mph88%29.92 "Hg2 mi
7:50 AM50 °FSprinkles. Fog.8 mph88%29.92 "Hg2 mi
7:20 AM50 °FSprinkles. Fog.8 mph88%29.92 "Hg2 mi
6:50 AM50 °FSprinkles. Fog.7 mph88%29.92 "Hg2 mi
6:20 AM48 °FSprinkles. Fog.7 mph94%29.92 "Hg2 mi
5:50 AM48 °FRain showers. Fog.10 mph94%29.92 "Hg2 mi
4:50 AM50 °FSprinkles. Fog.6 mph88%29.89 "Hg2 mi
4:20 AM50 °FSprinkles. Fog.5 mph82%29.89 "Hg2 mi
3:50 AM52 °FFog.6 mph77%29.89 "Hg2 mi
3:20 AM52 °FFog.9 mph77%29.89 "Hg2 mi
2:50 AM52 °FSprinkles. Fog.9 mph77%29.89 "Hg3 mi
2:20 AM52 °FFog.9 mph77%29.89 "Hg3 mi
1:50 AM50 °FFog.9 mph82%29.89 "Hg3 mi
1:20 AM50 °FFog.8 mph82%29.92 "Hg3 mi
12:50 AM48 °FFog.3 mph87%29.92 "Hg3 mi
12:20 AM48 °FFog.3 mph87%29.95 "Hg2 mi
11:50 PM
Jan 29
48 °FFog.5 mph87%29.95 "Hg2 mi
11:20 PM48 °FFog.7 mph87%29.95 "Hg2 mi
10:50 PM50 °FFog.3 mph88%29.95 "Hg2 mi
10:20 PM50 °FFog.5 mph82%29.95 "Hg2 mi
9:50 PM50 °FFog.5 mph82%29.95 "Hg2 mi
9:20 PM52 °FFog.5 mph82%29.95 "Hg2 mi
8:50 PM50 °FFog.1 mph82%29.95 "Hg2 mi
8:20 PM50 °FFog.6 mph82%29.95 "Hg2 mi
7:50 PM50 °FFog.5 mph88%29.95 "Hg2 mi
7:20 PM52 °FFog.3 mph82%29.95 "Hg2 mi
6:50 PM54 °FFog.5 mph77%29.95 "Hg2 mi
6:20 PM54 °FSprinkles. Partly cloudy.5 mph77%29.95 "Hg4 mi
5:50 PM54 °FSprinkles. Partly cloudy.5 mph77%29.95 "HgN/A
5:20 PM55 °FPartly cloudy.6 mph67%29.95 "HgN/A
4:50 PM57 °FBroken clouds.6 mph67%29.95 "HgN/A
4:20 PM57 °FBroken clouds.6 mph67%29.92 "HgN/A
Weather by CustomWeather, © 2014

See weather overviewHow to use our weather pages